UAL786 KIAH-MMVR

Flight info

Callsign UAL786
Flight time 1h 1m
Altitude 34000
Route RITAA7 WWREN DCT BRO/N0468F350 DCT IPRUL UT48 AVALI UT61 DURIB DURIB1A
Aircraft B738/M-SDE2E3FGHIRWXY/LB1

Departure

Time 2026-04-14 15:42
Airport George Bush Intercontinental Airport (KIAH)

Arrival

Time 2026-04-14 16:43
Airport General Heriberto Jara International Airport (MMVR)
Time Latitude Longitude Altitude Speed Heading
2026-04-14 15:18 29.98382 -95.33177 106 ft 0 kts 319°
2026-04-14 15:31 29.98382 -95.33178 106 ft 0 kts 315°
2026-04-14 15:32 29.98365 -95.33162 105 ft 4 kts 342°
2026-04-14 15:32 29.98345 -95.33160 105 ft 1 kts
2026-04-14 15:34 29.98349 -95.33158 104 ft 2 kts 14°
2026-04-14 15:34 29.98352 -95.33138 106 ft 7 kts 109°
2026-04-14 15:34 29.98304 -95.33151 106 ft 12 kts 256°
2026-04-14 15:35 29.98300 -95.33270 106 ft 18 kts 269°
2026-04-14 15:35 29.98299 -95.33445 106 ft 25 kts 271°
2026-04-14 15:35 29.98314 -95.33671 106 ft 31 kts 272°
2026-04-14 15:35 29.98317 -95.33753 106 ft 15 kts 272°
2026-04-14 15:38 29.98317 -95.33830 106 ft 16 kts 270°
2026-04-14 15:38 29.98327 -95.33990 105 ft 23 kts 288°
2026-04-14 15:38 29.98378 -95.34188 106 ft 29 kts 273°
2026-04-14 15:39 29.98379 -95.34439 106 ft 33 kts 261°
2026-04-14 15:39 29.98341 -95.34714 106 ft 36 kts 262°
2026-04-14 15:39 29.98324 -95.34990 106 ft 34 kts 269°
2026-04-14 15:39 29.98388 -95.35207 106 ft 28 kts 326°
2026-04-14 15:40 29.98555 -95.35311 106 ft 26 kts 335°
2026-04-14 15:40 29.98713 -95.35405 106 ft 25 kts 332°
2026-04-14 15:40 29.98858 -95.35499 106 ft 23 kts 319°
2026-04-14 15:40 29.98835 -95.35663 106 ft 20 kts 243°
2026-04-14 15:41 29.98746 -95.35755 108 ft 19 kts 173°
2026-04-14 15:41 29.98631 -95.35691 107 ft 21 kts 152°
2026-04-14 15:41 29.98285 -95.35479 106 ft 97 kts 152°
2026-04-14 15:41 29.97467 -95.34983 104 ft 167 kts 153°
2026-04-14 15:42 29.96315 -95.34244 464 ft 201 kts 152°
2026-04-14 15:42 29.95094 -95.33447 1400 ft 202 kts 148°
2026-04-14 15:42 29.93931 -95.32410 1955 ft 224 kts 143°
2026-04-14 15:42 29.92683 -95.31272 2732 ft 229 kts 144°
2026-04-14 15:43 29.91504 -95.30056 3713 ft 229 kts 133°
2026-04-14 15:43 29.90545 -95.28595 4504 ft 235 kts 129°
2026-04-14 15:43 29.89505 -95.27102 5235 ft 239 kts 134°
2026-04-14 15:43 29.88438 -95.25593 5879 ft 250 kts 127°
2026-04-14 15:44 29.87452 -95.23903 6553 ft 257 kts 126°
2026-04-14 15:44 29.86440 -95.22199 7279 ft 258 kts 126°
2026-04-14 15:44 29.85403 -95.20504 7986 ft 260 kts 127°
2026-04-14 15:44 29.84337 -95.18766 8525 ft 271 kts 127°
2026-04-14 15:45 29.83248 -95.16972 9192 ft 274 kts 126°
2026-04-14 15:45 29.82151 -95.15218 9966 ft 274 kts 127°
2026-04-14 15:45 29.80989 -95.13386 10139 ft 300 kts 124°
2026-04-14 15:45 29.79641 -95.11387 10219 ft 330 kts 135°
2026-04-14 15:46 29.77893 -95.09646 10713 ft 335 kts 149°
2026-04-14 15:46 29.75705 -95.08848 11187 ft 332 kts 178°
2026-04-14 15:46 29.73439 -95.09237 11679 ft 332 kts 199°
2026-04-14 15:46 29.71397 -95.10497 12172 ft 338 kts 217°
2026-04-14 15:47 29.69569 -95.12221 12696 ft 343 kts 220°
2026-04-14 15:47 29.67758 -95.13977 13191 ft 348 kts 220°
2026-04-14 15:47 29.65894 -95.15769 13701 ft 351 kts 220°
2026-04-14 15:47 29.64093 -95.17677 14184 ft 353 kts 224°
2026-04-14 15:48 29.62338 -95.19651 14649 ft 352 kts 224°
2026-04-14 15:48 29.60587 -95.21607 15099 ft 349 kts 225°
2026-04-14 15:48 29.58783 -95.23458 15582 ft 350 kts 214°
2026-04-14 15:48 29.56627 -95.24773 16060 ft 351 kts 207°
2026-04-14 15:49 29.54428 -95.25984 16541 ft 351 kts 207°
2026-04-14 15:49 29.52250 -95.27174 17048 ft 353 kts 207°
2026-04-14 15:49 29.50027 -95.28390 17569 ft 355 kts 207°
2026-04-14 15:49 29.47792 -95.29619 18073 ft 358 kts 207°
2026-04-14 15:50 29.45546 -95.30864 18638 ft 358 kts 208°
2026-04-14 15:50 29.43304 -95.32113 19150 ft 359 kts 208°
2026-04-14 15:50 29.41060 -95.33367 19667 ft 359 kts 208°
2026-04-14 15:50 29.38815 -95.34624 20198 ft 359 kts 208°
2026-04-14 15:51 29.36570 -95.35881 20731 ft 359 kts 208°
2026-04-14 15:51 29.34355 -95.37121 21279 ft 359 kts 209°
2026-04-14 15:51 29.32112 -95.38377 21836 ft 358 kts 209°
2026-04-14 15:51 29.29877 -95.39626 22408 ft 357 kts 209°
2026-04-14 15:52 29.27650 -95.40872 22992 ft 356 kts 210°
2026-04-14 15:52 29.25429 -95.42112 23593 ft 354 kts 210°
2026-04-14 15:52 29.23223 -95.43344 24114 ft 352 kts 210°
2026-04-14 15:52 29.21031 -95.44568 24622 ft 349 kts 210°
2026-04-14 15:53 29.18852 -95.45784 25083 ft 349 kts 210°
2026-04-14 15:53 29.16659 -95.47011 25134 ft 362 kts 210°
2026-04-14 15:53 29.14355 -95.48300 25164 ft 375 kts 210°
2026-04-14 15:53 29.11969 -95.49632 25237 ft 385 kts 209°
2026-04-14 15:54 29.07137 -95.52319 25968 ft 388 kts 209°
2026-04-14 15:54 29.04702 -95.53672 26327 ft 390 kts 209°
2026-04-14 15:54 29.02259 -95.55030 26687 ft 391 kts 209°
2026-04-14 15:55 28.99809 -95.56392 27046 ft 392 kts 209°
2026-04-14 15:55 28.97353 -95.57756 27414 ft 393 kts 209°
2026-04-14 15:55 28.94922 -95.59106 27786 ft 394 kts 209°
2026-04-14 15:55 28.92459 -95.60473 28157 ft 394 kts 208°
2026-04-14 15:56 28.89992 -95.61844 28539 ft 394 kts 209°
2026-04-14 15:56 28.87566 -95.63292 28913 ft 393 kts 211°
2026-04-14 15:56 28.85174 -95.64798 29307 ft 393 kts 212°
2026-04-14 15:56 28.82789 -95.66325 29693 ft 392 kts 212°
2026-04-14 15:57 28.80412 -95.67847 30092 ft 392 kts 212°
2026-04-14 15:57 28.75578 -95.70925 30146 ft 409 kts 211°
2026-04-14 15:58 28.70499 -95.74131 30149 ft 425 kts 211°
2026-04-14 15:58 28.67897 -95.75766 30253 ft 427 kts 211°
2026-04-14 15:58 28.65302 -95.77393 30391 ft 424 kts 211°
2026-04-14 15:58 28.62775 -95.78976 30677 ft 421 kts 211°
2026-04-14 15:59 28.60206 -95.80585 30953 ft 421 kts 211°
2026-04-14 15:59 28.57643 -95.82190 31235 ft 420 kts 211°
2026-04-14 15:59 28.55116 -95.83772 31519 ft 420 kts 211°
2026-04-14 15:59 28.52558 -95.85373 31785 ft 419 kts 211°
2026-04-14 16:00 28.50007 -95.86969 32078 ft 417 kts 211°
2026-04-14 16:00 28.47467 -95.88557 32369 ft 416 kts 211°
2026-04-14 16:00 28.44939 -95.90136 32664 ft 414 kts 211°
2026-04-14 16:00 28.42420 -95.91709 32961 ft 412 kts 211°
2026-04-14 16:01 28.39911 -95.93275 33262 ft 410 kts 211°
2026-04-14 16:01 28.37447 -95.94813 33557 ft 408 kts 211°
2026-04-14 16:01 28.34963 -95.96361 33863 ft 406 kts 211°
2026-04-14 16:01 28.32493 -95.97900 34133 ft 405 kts 211°
2026-04-14 16:02 28.30004 -95.99452 34109 ft 411 kts 211°
2026-04-14 16:02 28.24933 -96.02610 34133 ft 421 kts 211°
2026-04-14 16:03 28.19747 -96.05835 34133 ft 429 kts 211°
2026-04-14 16:03 28.10841 -96.11336 34133 ft 443 kts 210°
2026-04-14 16:04 27.88560 -96.24416 34094 ft 453 kts 210°
2026-04-14 16:04 27.66354 -96.37447 34098 ft 446 kts 210°
2026-04-14 16:05 27.44683 -96.50103 34132 ft 438 kts 210°
2026-04-14 16:05 27.23125 -96.62638 34101 ft 436 kts 210°
2026-04-14 16:06 27.01351 -96.75244 34119 ft 446 kts 209°
2026-04-14 16:06 26.79130 -96.88048 34103 ft 450 kts 209°
2026-04-14 16:07 26.56852 -97.00830 34089 ft 450 kts 209°
2026-04-14 16:07 26.34730 -97.13467 34085 ft 449 kts 208°
2026-04-14 16:08 26.12455 -97.26137 34099 ft 449 kts 208°
2026-04-14 16:08 25.95613 -97.35615 34086 ft 451 kts 203°
2026-04-14 16:09 25.89571 -97.37320 34097 ft 454 kts 189°
2026-04-14 16:09 25.73247 -97.37105 34078 ft 456 kts 181°
2026-04-14 16:10 25.47920 -97.36502 34084 ft 455 kts 181°
2026-04-14 16:10 25.22640 -97.35944 34086 ft 454 kts 181°
2026-04-14 16:11 24.97319 -97.35384 34085 ft 455 kts 181°
2026-04-14 16:11 24.72152 -97.34830 34078 ft 456 kts 181°
2026-04-14 16:12 24.52298 -97.34376 34086 ft 457 kts 179°
2026-04-14 16:12 24.30519 -97.31272 34086 ft 459 kts 175°
2026-04-14 16:13 24.05176 -97.27682 34085 ft 459 kts 176°
2026-04-14 16:13 23.80039 -97.24139 34092 ft 458 kts 176°
2026-04-14 16:14 23.54741 -97.20588 34088 ft 458 kts 177°
2026-04-14 16:14 23.30596 -97.17211 34092 ft 458 kts 177°
2026-04-14 16:15 23.13350 -97.14807 34087 ft 457 kts 177°
2026-04-14 16:15 22.90713 -97.11653 34090 ft 457 kts 177°
2026-04-14 16:16 22.65502 -97.08151 34089 ft 456 kts 177°
2026-04-14 16:16 22.40270 -97.04659 34092 ft 456 kts 178°
2026-04-14 16:17 22.15149 -97.01196 34082 ft 456 kts 178°
2026-04-14 16:17 21.90021 -96.97744 34080 ft 455 kts 177°
2026-04-14 16:18 21.70823 -96.95108 34081 ft 455 kts 177°
2026-04-14 16:18 21.50214 -96.92261 34082 ft 456 kts 177°
2026-04-14 16:19 21.26400 -96.89042 34080 ft 456 kts 177°
2026-04-14 16:19 21.01186 -96.85641 34076 ft 456 kts 177°
2026-04-14 16:20 20.76036 -96.82261 34089 ft 458 kts 177°
2026-04-14 16:20 20.62549 -96.80372 34062 ft 459 kts 176°
2026-04-14 16:21 20.37246 -96.77006 34057 ft 459 kts 177°
2026-04-14 16:21 20.20337 -96.74629 34028 ft 463 kts 171°
2026-04-14 16:22 20.11200 -96.70429 34058 ft 472 kts 157°
2026-04-14 16:22 19.89819 -96.58889 34039 ft 473 kts 158°
2026-04-14 16:23 19.73052 -96.53634 34059 ft 467 kts 169°
2026-04-14 16:23 19.48031 -96.46109 34012 ft 469 kts 168°
2026-04-14 16:24 19.28552 -96.40262 33914 ft 474 kts 168°
2026-04-14 16:24 19.24556 -96.39065 33405 ft 473 kts 168°
2026-04-14 16:24 19.21473 -96.38137 32871 ft 461 kts 168°
2026-04-14 16:24 19.18405 -96.37216 32092 ft 456 kts 168°
2026-04-14 16:25 19.15371 -96.36308 31380 ft 451 kts 167°
2026-04-14 16:25 19.12360 -96.35407 30648 ft 447 kts 167°
2026-04-14 16:25 19.09383 -96.34517 29908 ft 443 kts 167°
2026-04-14 16:25 19.06519 -96.33357 29050 ft 444 kts 152°
2026-04-14 16:26 19.04131 -96.31294 28273 ft 445 kts 134°
2026-04-14 16:26 19.02406 -96.28584 27515 ft 446 kts 117°
2026-04-14 16:26 19.01470 -96.25477 26773 ft 445 kts 100°
2026-04-14 16:26 19.01327 -96.22265 26055 ft 444 kts 85°
2026-04-14 16:27 19.02107 -96.19143 25333 ft 441 kts 62°
2026-04-14 16:27 19.03931 -96.16591 24653 ft 434 kts 39°
2026-04-14 16:27 19.06489 -96.15005 23981 ft 425 kts 16°
2026-04-14 16:27 19.09373 -96.14600 23263 ft 416 kts 354°
2026-04-14 16:28 19.12227 -96.14928 22506 ft 410 kts 352°
2026-04-14 16:28 19.15071 -96.14930 21711 ft 409 kts
2026-04-14 16:28 19.17890 -96.14736 20966 ft 405 kts 355°
2026-04-14 16:28 19.20601 -96.15236 20245 ft 400 kts 341°
2026-04-14 16:29 19.23109 -96.16452 19530 ft 395 kts 327°
2026-04-14 16:29 19.25221 -96.18286 18830 ft 392 kts 314°
2026-04-14 16:29 19.26980 -96.20470 18094 ft 389 kts 303°
2026-04-14 16:29 19.28189 -96.23016 17306 ft 387 kts 288°
2026-04-14 16:30 19.28717 -96.25797 16542 ft 385 kts 273°
2026-04-14 16:30 19.28531 -96.28610 15800 ft 383 kts 258°
2026-04-14 16:30 19.27649 -96.31252 15068 ft 381 kts 242°
2026-04-14 16:30 19.26166 -96.33563 14362 ft 379 kts 231°
2026-04-14 16:31 19.24480 -96.35647 13653 ft 377 kts 229°
2026-04-14 16:31 19.22647 -96.37614 12857 ft 375 kts 218°
2026-04-14 16:31 19.20417 -96.39000 12091 ft 372 kts 199°
2026-04-14 16:31 19.17896 -96.39495 11359 ft 368 kts 180°
2026-04-14 16:32 19.15353 -96.39318 10655 ft 365 kts 173°
2026-04-14 16:32 19.12837 -96.38992 9946 ft 363 kts 172°
2026-04-14 16:32 19.10342 -96.38630 9163 ft 361 kts 172°
2026-04-14 16:32 19.07867 -96.38263 8397 ft 358 kts 172°
2026-04-14 16:33 19.05408 -96.37896 7644 ft 355 kts 172°
2026-04-14 16:33 19.03010 -96.37538 6916 ft 351 kts 172°
2026-04-14 16:33 19.00601 -96.37180 6172 ft 348 kts 172°
2026-04-14 16:33 18.98218 -96.36823 5471 ft 342 kts 172°
2026-04-14 16:34 18.95927 -96.36479 5263 ft 323 kts 172°
2026-04-14 16:34 18.93766 -96.36156 5115 ft 305 kts 172°
2026-04-14 16:34 18.91719 -96.35852 4997 ft 289 kts 172°
2026-04-14 16:34 18.89791 -96.35567 4964 ft 271 kts 172°
2026-04-14 16:35 18.87987 -96.35302 4958 ft 253 kts 172°
2026-04-14 16:35 18.86336 -96.35059 4970 ft 232 kts 171°
2026-04-14 16:35 18.84662 -96.34569 4786 ft 221 kts 150°
2026-04-14 16:35 18.83519 -96.33532 4572 ft 214 kts 123°
2026-04-14 16:36 18.82953 -96.32144 4364 ft 201 kts 100°
2026-04-14 16:36 18.82919 -96.30718 4166 ft 190 kts 78°
2026-04-14 16:36 18.83376 -96.29460 3937 ft 181 kts 58°
2026-04-14 16:36 18.84032 -96.28342 3693 ft 175 kts 58°
2026-04-14 16:37 18.84678 -96.27289 3421 ft 167 kts 50°
2026-04-14 16:37 18.85500 -96.26478 3224 ft 160 kts 40°
2026-04-14 16:37 18.86346 -96.25714 3037 ft 162 kts 41°
2026-04-14 16:37 18.87569 -96.24694 3024 ft 175 kts 30°
2026-04-14 16:38 18.89289 -96.24157 2981 ft 162 kts 14°
2026-04-14 16:38 18.91880 -96.23600 2951 ft 167 kts 12°
2026-04-14 16:38 18.93041 -96.23350 2812 ft 170 kts 12°
2026-04-14 16:38 18.94193 -96.23110 2653 ft 167 kts 12°
2026-04-14 16:39 18.95318 -96.22881 2503 ft 163 kts 13°
2026-04-14 16:39 18.96447 -96.22647 2303 ft 167 kts 13°
2026-04-14 16:39 18.97601 -96.22407 2043 ft 171 kts 13°
2026-04-14 16:39 18.98736 -96.22177 1884 ft 166 kts 12°
2026-04-14 16:40 18.99854 -96.21946 1620 ft 162 kts 13°
2026-04-14 16:40 19.00953 -96.21719 1376 ft 160 kts 12°
2026-04-14 16:40 19.02044 -96.21496 1173 ft 161 kts 12°
2026-04-14 16:40 19.03169 -96.21279 1030 ft 166 kts 13°
2026-04-14 16:41 19.04281 -96.21059 929 ft 160 kts 13°
2026-04-14 16:41 19.05386 -96.20850 931 ft 161 kts 13°
2026-04-14 16:41 19.06484 -96.20648 908 ft 158 kts 12°
2026-04-14 16:41 19.07552 -96.20451 912 ft 158 kts 12°
2026-04-14 16:42 19.08651 -96.20222 909 ft 162 kts 16°
2026-04-14 16:42 19.09696 -96.19792 811 ft 161 kts 22°
2026-04-14 16:42 19.10789 -96.19510 562 ft 163 kts 13°
2026-04-14 16:42 19.11892 -96.19291 371 ft 159 kts 13°
2026-04-14 16:43 19.12971 -96.19075 94 ft 156 kts 16°
2026-04-14 16:43 19.13900 -96.18873 82 ft 108 kts
2026-04-14 16:43 19.14423 -96.18768 70 ft 46 kts 12°
2026-04-14 16:43 19.14537 -96.18740 70 ft 0 kts 29°
2026-04-14 16:44 19.14567 -96.18706 68 ft 13 kts 66°
2026-04-14 16:44 19.14549 -96.18596 71 ft 15 kts 106°
2026-04-14 16:44 19.14463 -96.18561 69 ft 15 kts 193°
2026-04-14 16:45 19.14333 -96.18513 75 ft 14 kts 117°
2026-04-14 16:45 19.14300 -96.18477 74 ft 4 kts 174°
2026-04-14 16:45 19.14272 -96.18477 74 ft 4 kts 167°
2026-04-14 16:45 19.14254 -96.18456 76 ft 4 kts 107°
2026-04-14 16:46 19.14253 -96.18439 72 ft 0 kts 96°